owner,sensor,date,latitude,longitude,air_temperature,qcFlag 
COMPS,ioos:station:USF.COMPS:FHP:1,2019-08-01T00:54:00,28.1530,-82.8010,24.48,11111222 
COMPS,ioos:station:USF.COMPS:FHP:1,2019-08-01T01:54:00,28.1530,-82.8010,23.99,11111222 
COMPS,ioos:station:USF.COMPS:FHP:1,2019-08-01T02:54:00,28.1530,-82.8010,25.45,11111222 
COMPS,ioos:station:USF.COMPS:FHP:1,2019-08-01T03:54:00,28.1530,-82.8010,26.14,11111222 
COMPS,ioos:station:USF.COMPS:FHP:1,2019-08-01T04:54:00,28.1530,-82.8010,25.29,11111222 
COMPS,ioos:station:USF.COMPS:FHP:1,2019-08-01T05:54:00,28.1530,-82.8010,26.9,11111222 
COMPS,ioos:station:USF.COMPS:FHP:1,2019-08-01T06:54:00,28.1530,-82.8010,25.59,11111222 
COMPS,ioos:station:USF.COMPS:FHP:1,2019-08-01T07:54:00,28.1530,-82.8010,25.71,11111222 
COMPS,ioos:station:USF.COMPS:FHP:1,2019-08-01T08:54:00,28.1530,-82.8010,25.05,11111222 
COMPS,ioos:station:USF.COMPS:FHP:1,2019-08-01T09:54:00,28.1530,-82.8010,24.72,11111222 
COMPS,ioos:station:USF.COMPS:FHP:1,2019-08-01T10:54:00,28.1530,-82.8010,24.86,11111222 
COMPS,ioos:station:USF.COMPS:FHP:1,2019-08-01T11:54:00,28.1530,-82.8010,26.49,11111222 
COMPS,ioos:station:USF.COMPS:FHP:1,2019-08-01T12:54:00,28.1530,-82.8010,27.8,11111222 
COMPS,ioos:station:USF.COMPS:FHP:1,2019-08-01T13:54:00,28.1530,-82.8010,28.1,11111222 
COMPS,ioos:station:USF.COMPS:FHP:1,2019-08-01T14:54:00,28.1530,-82.8010,29.36,11111222 
COMPS,ioos:station:USF.COMPS:FHP:1,2019-08-01T15:54:00,28.1530,-82.8010,30.67,11111222 
COMPS,ioos:station:USF.COMPS:FHP:1,2019-08-01T16:54:00,28.1530,-82.8010,29.12,11111222 
COMPS,ioos:station:USF.COMPS:FHP:1,2019-08-01T17:54:00,28.1530,-82.8010,29.3,11111222 
COMPS,ioos:station:USF.COMPS:FHP:1,2019-08-01T18:54:00,28.1530,-82.8010,30.15,11111222 
COMPS,ioos:station:USF.COMPS:FHP:1,2019-08-01T19:54:00,28.1530,-82.8010,30.24,11111222 
COMPS,ioos:station:USF.COMPS:FHP:1,2019-08-01T20:54:00,28.1530,-82.8010,25.96,11111222 
COMPS,ioos:station:USF.COMPS:FHP:1,2019-08-01T21:54:00,28.1530,-82.8010,24.86,11111222 
COMPS,ioos:station:USF.COMPS:FHP:1,2019-08-01T22:54:00,28.1530,-82.8010,24.89,11111222 
COMPS,ioos:station:USF.COMPS:FHP:1,2019-08-01T23:54:00,28.1530,-82.8010,24.85,11111222 
COMPS,ioos:station:USF.COMPS:FHP:1,2019-08-02T00:54:00,28.1530,-82.8010,24.85,11111222 
COMPS,ioos:station:USF.COMPS:FHP:1,2019-08-02T01:54:00,28.1530,-82.8010,24.68,11111222 
COMPS,ioos:station:USF.COMPS:FHP:1,2019-08-02T02:54:00,28.1530,-82.8010,24.34,11111222 
COMPS,ioos:station:USF.COMPS:FHP:1,2019-08-02T03:54:00,28.1530,-82.8010,24.78,11111222 
COMPS,ioos:station:USF.COMPS:FHP:1,2019-08-02T04:54:00,28.1530,-82.8010,24.63,11111222 
COMPS,ioos:station:USF.COMPS:FHP:1,2019-08-02T05:54:00,28.1530,-82.8010,24.38,11111222 
COMPS,ioos:station:USF.COMPS:FHP:1,2019-08-02T06:54:00,28.1530,-82.8010,24.45,11111222 
COMPS,ioos:station:USF.COMPS:FHP:1,2019-08-02T07:54:00,28.1530,-82.8010,23.94,11111222 
COMPS,ioos:station:USF.COMPS:FHP:1,2019-08-02T08:54:00,28.1530,-82.8010,24.05,11111222 
COMPS,ioos:station:USF.COMPS:FHP:1,2019-08-02T09:54:00,28.1530,-82.8010,23.79,11111222 
COMPS,ioos:station:USF.COMPS:FHP:1,2019-08-02T10:54:00,28.1530,-82.8010,23.63,11111222 
COMPS,ioos:station:USF.COMPS:FHP:1,2019-08-02T11:54:00,28.1530,-82.8010,23.83,11111222 
COMPS,ioos:station:USF.COMPS:FHP:1,2019-08-02T12:54:00,28.1530,-82.8010,24.6,11111222 
COMPS,ioos:station:USF.COMPS:FHP:1,2019-08-02T13:54:00,28.1530,-82.8010,25.89,11111222 
COMPS,ioos:station:USF.COMPS:FHP:1,2019-08-02T14:54:00,28.1530,-82.8010,27.17,11111222 
COMPS,ioos:station:USF.COMPS:FHP:1,2019-08-02T15:54:00,28.1530,-82.8010,28.78,11111222 
COMPS,ioos:station:USF.COMPS:FHP:1,2019-08-02T16:54:00,28.1530,-82.8010,29.0,11111222 
COMPS,ioos:station:USF.COMPS:FHP:1,2019-08-02T17:54:00,28.1530,-82.8010,29.23,11111222 
COMPS,ioos:station:USF.COMPS:FHP:1,2019-08-02T18:54:00,28.1530,-82.8010,29.33,11111222 
COMPS,ioos:station:USF.COMPS:FHP:1,2019-08-02T19:54:00,28.1530,-82.8010,29.0,11111222 
COMPS,ioos:station:USF.COMPS:FHP:1,2019-08-02T20:54:00,28.1530,-82.8010,27.14,11111222 
COMPS,ioos:station:USF.COMPS:FHP:1,2019-08-02T21:54:00,28.1530,-82.8010,25.82,11111222 
COMPS,ioos:station:USF.COMPS:FHP:1,2019-08-02T22:54:00,28.1530,-82.8010,25.67,11111222 
COMPS,ioos:station:USF.COMPS:FHP:1,2019-08-02T23:54:00,28.1530,-82.8010,25.39,11111222 
COMPS,ioos:station:USF.COMPS:FHP:1,2019-08-03T00:54:00,28.1530,-82.8010,25.39,11111222 
COMPS,ioos:station:USF.COMPS:FHP:1,2019-08-03T01:54:00,28.1530,-82.8010,25.02,11111222 
COMPS,ioos:station:USF.COMPS:FHP:1,2019-08-03T02:54:00,28.1530,-82.8010,25.12,11111222 
COMPS,ioos:station:USF.COMPS:FHP:1,2019-08-03T03:54:00,28.1530,-82.8010,25.18,11111222 
COMPS,ioos:station:USF.COMPS:FHP:1,2019-08-03T04:54:00,28.1530,-82.8010,25.05,11111222 
COMPS,ioos:station:USF.COMPS:FHP:1,2019-08-03T05:54:00,28.1530,-82.8010,24.94,11111222 
COMPS,ioos:station:USF.COMPS:FHP:1,2019-08-03T06:54:00,28.1530,-82.8010,24.82,11111222 
COMPS,ioos:station:USF.COMPS:FHP:1,2019-08-03T07:54:00,28.1530,-82.8010,24.67,11111222 
COMPS,ioos:station:USF.COMPS:FHP:1,2019-08-03T08:54:00,28.1530,-82.8010,24.69,11111222 
COMPS,ioos:station:USF.COMPS:FHP:1,2019-08-03T09:54:00,28.1530,-82.8010,24.53,11111222 
COMPS,ioos:station:USF.COMPS:FHP:1,2019-08-03T10:54:00,28.1530,-82.8010,24.64,11111222 
COMPS,ioos:station:USF.COMPS:FHP:1,2019-08-03T11:54:00,28.1530,-82.8010,24.91,11111222 
COMPS,ioos:station:USF.COMPS:FHP:1,2019-08-03T12:54:00,28.1530,-82.8010,25.69,11111222 
COMPS,ioos:station:USF.COMPS:FHP:1,2019-08-03T13:54:00,28.1530,-82.8010,26.27,11111222 
COMPS,ioos:station:USF.COMPS:FHP:1,2019-08-03T14:54:00,28.1530,-82.8010,26.72,11111222 
COMPS,ioos:station:USF.COMPS:FHP:1,2019-08-03T15:54:00,28.1530,-82.8010,26.98,11111222 
COMPS,ioos:station:USF.COMPS:FHP:1,2019-08-03T16:54:00,28.1530,-82.8010,27.4,11111222 
COMPS,ioos:station:USF.COMPS:FHP:1,2019-08-03T17:54:00,28.1530,-82.8010,28.92,11111222 
COMPS,ioos:station:USF.COMPS:FHP:1,2019-08-03T18:54:00,28.1530,-82.8010,28.79,11111222 
COMPS,ioos:station:USF.COMPS:FHP:1,2019-08-03T19:54:00,28.1530,-82.8010,29.0,11111222 
COMPS,ioos:station:USF.COMPS:FHP:1,2019-08-03T20:54:00,28.1530,-82.8010,29.27,11111222 
COMPS,ioos:station:USF.COMPS:FHP:1,2019-08-03T21:54:00,28.1530,-82.8010,29.43,11111222 
COMPS,ioos:station:USF.COMPS:FHP:1,2019-08-03T22:54:00,28.1530,-82.8010,29.5,11111222 
COMPS,ioos:station:USF.COMPS:FHP:1,2019-08-03T23:54:00,28.1530,-82.8010,29.77,11111222 
COMPS,ioos:station:USF.COMPS:FHP:1,2019-08-04T00:54:00,28.1530,-82.8010,29.1,11111222 
COMPS,ioos:station:USF.COMPS:FHP:1,2019-08-04T01:54:00,28.1530,-82.8010,29.17,11111222 
COMPS,ioos:station:USF.COMPS:FHP:1,2019-08-04T02:54:00,28.1530,-82.8010,28.99,11111222 
COMPS,ioos:station:USF.COMPS:FHP:1,2019-08-04T03:54:00,28.1530,-82.8010,28.96,11111222 
COMPS,ioos:station:USF.COMPS:FHP:1,2019-08-04T04:54:00,28.1530,-82.8010,28.81,11111222 
COMPS,ioos:station:USF.COMPS:FHP:1,2019-08-04T05:54:00,28.1530,-82.8010,28.21,11111222 
COMPS,ioos:station:USF.COMPS:FHP:1,2019-08-04T06:54:00,28.1530,-82.8010,28.59,11111222 
COMPS,ioos:station:USF.COMPS:FHP:1,2019-08-04T07:54:00,28.1530,-82.8010,28.48,11111222 
COMPS,ioos:station:USF.COMPS:FHP:1,2019-08-04T08:54:00,28.1530,-82.8010,28.5,11111222 
COMPS,ioos:station:USF.COMPS:FHP:1,2019-08-04T09:54:00,28.1530,-82.8010,28.54,11111222 
COMPS,ioos:station:USF.COMPS:FHP:1,2019-08-04T10:54:00,28.1530,-82.8010,28.53,11111222 
COMPS,ioos:station:USF.COMPS:FHP:1,2019-08-04T11:54:00,28.1530,-82.8010,29.11,11111222 
COMPS,ioos:station:USF.COMPS:FHP:1,2019-08-04T12:54:00,28.1530,-82.8010,29.32,11111222 
COMPS,ioos:station:USF.COMPS:FHP:1,2019-08-04T13:54:00,28.1530,-82.8010,29.38,11111222 
COMPS,ioos:station:USF.COMPS:FHP:1,2019-08-04T14:54:00,28.1530,-82.8010,29.36,11111222 
COMPS,ioos:station:USF.COMPS:FHP:1,2019-08-04T15:54:00,28.1530,-82.8010,29.64,11111222 
COMPS,ioos:station:USF.COMPS:FHP:1,2019-08-04T16:54:00,28.1530,-82.8010,29.77,11111222 
COMPS,ioos:station:USF.COMPS:FHP:1,2019-08-04T17:54:00,28.1530,-82.8010,30.02,11111222 
COMPS,ioos:station:USF.COMPS:FHP:1,2019-08-04T18:54:00,28.1530,-82.8010,30.76,11111222 
COMPS,ioos:station:USF.COMPS:FHP:1,2019-08-04T19:54:00,28.1530,-82.8010,31.1,11111222 
COMPS,ioos:station:USF.COMPS:FHP:1,2019-08-04T20:54:00,28.1530,-82.8010,31.38,11111222 
COMPS,ioos:station:USF.COMPS:FHP:1,2019-08-04T21:54:00,28.1530,-82.8010,30.6,11111222 
COMPS,ioos:station:USF.COMPS:FHP:1,2019-08-04T22:54:00,28.1530,-82.8010,30.37,11111222 
COMPS,ioos:station:USF.COMPS:FHP:1,2019-08-04T23:54:00,28.1530,-82.8010,30.37,11111222 
COMPS,ioos:station:USF.COMPS:FHP:1,2019-08-05T00:54:00,28.1530,-82.8010,29.55,11111222 
COMPS,ioos:station:USF.COMPS:FHP:1,2019-08-05T01:54:00,28.1530,-82.8010,29.51,11111222 
COMPS,ioos:station:USF.COMPS:FHP:1,2019-08-05T02:54:00,28.1530,-82.8010,29.5,11111222 
COMPS,ioos:station:USF.COMPS:FHP:1,2019-08-05T03:54:00,28.1530,-82.8010,29.52,11111222 
COMPS,ioos:station:USF.COMPS:FHP:1,2019-08-05T04:54:00,28.1530,-82.8010,29.49,11111222 
COMPS,ioos:station:USF.COMPS:FHP:1,2019-08-05T05:54:00,28.1530,-82.8010,29.36,11111222 
COMPS,ioos:station:USF.COMPS:FHP:1,2019-08-05T06:54:00,28.1530,-82.8010,29.28,11111222 
COMPS,ioos:station:USF.COMPS:FHP:1,2019-08-05T07:54:00,28.1530,-82.8010,29.24,11111222 
COMPS,ioos:station:USF.COMPS:FHP:1,2019-08-05T08:54:00,28.1530,-82.8010,29.21,11111222 
COMPS,ioos:station:USF.COMPS:FHP:1,2019-08-05T09:54:00,28.1530,-82.8010,29.21,11111222 
COMPS,ioos:station:USF.COMPS:FHP:1,2019-08-05T10:54:00,28.1530,-82.8010,26.71,11111222 
COMPS,ioos:station:USF.COMPS:FHP:1,2019-08-05T11:54:00,28.1530,-82.8010,27.79,11111222 
COMPS,ioos:station:USF.COMPS:FHP:1,2019-08-05T12:54:00,28.1530,-82.8010,28.39,11111222 
COMPS,ioos:station:USF.COMPS:FHP:1,2019-08-05T13:54:00,28.1530,-82.8010,27.78,11111222 
COMPS,ioos:station:USF.COMPS:FHP:1,2019-08-05T14:54:00,28.1530,-82.8010,29.27,11111222 
COMPS,ioos:station:USF.COMPS:FHP:1,2019-08-05T15:54:00,28.1530,-82.8010,30.12,11111222 
COMPS,ioos:station:USF.COMPS:FHP:1,2019-08-05T16:54:00,28.1530,-82.8010,29.99,11111222 
COMPS,ioos:station:USF.COMPS:FHP:1,2019-08-05T17:54:00,28.1530,-82.8010,30.74,11111222 
COMPS,ioos:station:USF.COMPS:FHP:1,2019-08-05T18:54:00,28.1530,-82.8010,30.76,11111222 
COMPS,ioos:station:USF.COMPS:FHP:1,2019-08-05T19:54:00,28.1530,-82.8010,30.88,11111222 
COMPS,ioos:station:USF.COMPS:FHP:1,2019-08-05T20:54:00,28.1530,-82.8010,31.2,11111222 
COMPS,ioos:station:USF.COMPS:FHP:1,2019-08-05T21:54:00,28.1530,-82.8010,30.92,11111222 
COMPS,ioos:station:USF.COMPS:FHP:1,2019-08-05T22:54:00,28.1530,-82.8010,30.98,11111222 
COMPS,ioos:station:USF.COMPS:FHP:1,2019-08-05T23:54:00,28.1530,-82.8010,30.38,11111222 
COMPS,ioos:station:USF.COMPS:FHP:1,2019-08-06T00:54:00,28.1530,-82.8010,29.76,11111222 
COMPS,ioos:station:USF.COMPS:FHP:1,2019-08-06T01:54:00,28.1530,-82.8010,29.62,11111222 
COMPS,ioos:station:USF.COMPS:FHP:1,2019-08-06T02:54:00,28.1530,-82.8010,29.58,11111222 
COMPS,ioos:station:USF.COMPS:FHP:1,2019-08-06T03:54:00,28.1530,-82.8010,29.65,11111222 
COMPS,ioos:station:USF.COMPS:FHP:1,2019-08-06T04:54:00,28.1530,-82.8010,28.21,11111222 
COMPS,ioos:station:USF.COMPS:FHP:1,2019-08-06T05:54:00,28.1530,-82.8010,29.38,11111222 
COMPS,ioos:station:USF.COMPS:FHP:1,2019-08-06T06:54:00,28.1530,-82.8010,29.25,11111222 
COMPS,ioos:station:USF.COMPS:FHP:1,2019-08-06T07:54:00,28.1530,-82.8010,29.43,11111222 
COMPS,ioos:station:USF.COMPS:FHP:1,2019-08-06T08:54:00,28.1530,-82.8010,29.32,11111222 
COMPS,ioos:station:USF.COMPS:FHP:1,2019-08-06T09:54:00,28.1530,-82.8010,29.3,11111222 
COMPS,ioos:station:USF.COMPS:FHP:1,2019-08-06T10:54:00,28.1530,-82.8010,28.95,11111222 
COMPS,ioos:station:USF.COMPS:FHP:1,2019-08-06T11:54:00,28.1530,-82.8010,29.27,11111222 
COMPS,ioos:station:USF.COMPS:FHP:1,2019-08-06T12:54:00,28.1530,-82.8010,28.68,11111222 
COMPS,ioos:station:USF.COMPS:FHP:1,2019-08-06T13:54:00,28.1530,-82.8010,28.45,11111222 
COMPS,ioos:station:USF.COMPS:FHP:1,2019-08-06T14:54:00,28.1530,-82.8010,28.99,11111222 
COMPS,ioos:station:USF.COMPS:FHP:1,2019-08-06T15:54:00,28.1530,-82.8010,30.07,11111222 
COMPS,ioos:station:USF.COMPS:FHP:1,2019-08-06T16:54:00,28.1530,-82.8010,30.61,11111222 
COMPS,ioos:station:USF.COMPS:FHP:1,2019-08-06T17:54:00,28.1530,-82.8010,30.83,11111222 
COMPS,ioos:station:USF.COMPS:FHP:1,2019-08-06T18:54:00,28.1530,-82.8010,31.14,11111222 
COMPS,ioos:station:USF.COMPS:FHP:1,2019-08-06T19:54:00,28.1530,-82.8010,30.92,11111222 
COMPS,ioos:station:USF.COMPS:FHP:1,2019-08-06T20:54:00,28.1530,-82.8010,31.0,11111222 
COMPS,ioos:station:USF.COMPS:FHP:1,2019-08-06T21:54:00,28.1530,-82.8010,31.45,11111222 
COMPS,ioos:station:USF.COMPS:FHP:1,2019-08-06T22:54:00,28.1530,-82.8010,30.71,11111222 
COMPS,ioos:station:USF.COMPS:FHP:1,2019-08-06T23:54:00,28.1530,-82.8010,29.58,11111222 
COMPS,ioos:station:USF.COMPS:FHP:1,2019-08-07T00:54:00,28.1530,-82.8010,29.53,11111222 
COMPS,ioos:station:USF.COMPS:FHP:1,2019-08-07T01:54:00,28.1530,-82.8010,29.54,11111222 
COMPS,ioos:station:USF.COMPS:FHP:1,2019-08-07T02:54:00,28.1530,-82.8010,29.56,11111222 
COMPS,ioos:station:USF.COMPS:FHP:1,2019-08-07T03:54:00,28.1530,-82.8010,29.52,11111222 
COMPS,ioos:station:USF.COMPS:FHP:1,2019-08-07T04:54:00,28.1530,-82.8010,29.52,11111222 
COMPS,ioos:station:USF.COMPS:FHP:1,2019-08-07T05:54:00,28.1530,-82.8010,29.53,11111222 
COMPS,ioos:station:USF.COMPS:FHP:1,2019-08-07T06:54:00,28.1530,-82.8010,29.59,11111222 
COMPS,ioos:station:USF.COMPS:FHP:1,2019-08-07T07:54:00,28.1530,-82.8010,29.55,11111222 
COMPS,ioos:station:USF.COMPS:FHP:1,2019-08-07T08:54:00,28.1530,-82.8010,29.5,11111222 
COMPS,ioos:station:USF.COMPS:FHP:1,2019-08-07T09:54:00,28.1530,-82.8010,29.51,11111222 
COMPS,ioos:station:USF.COMPS:FHP:1,2019-08-07T10:54:00,28.1530,-82.8010,29.43,11111222 
COMPS,ioos:station:USF.COMPS:FHP:1,2019-08-07T11:54:00,28.1530,-82.8010,29.6,11111222 
COMPS,ioos:station:USF.COMPS:FHP:1,2019-08-07T12:54:00,28.1530,-82.8010,28.97,11111222 
COMPS,ioos:station:USF.COMPS:FHP:1,2019-08-07T13:54:00,28.1530,-82.8010,29.25,11111222 
COMPS,ioos:station:USF.COMPS:FHP:1,2019-08-07T14:54:00,28.1530,-82.8010,29.66,11111222 
COMPS,ioos:station:USF.COMPS:FHP:1,2019-08-07T15:54:00,28.1530,-82.8010,30.07,11111222 
COMPS,ioos:station:USF.COMPS:FHP:1,2019-08-07T16:54:00,28.1530,-82.8010,30.24,11111222 
COMPS,ioos:station:USF.COMPS:FHP:1,2019-08-07T17:54:00,28.1530,-82.8010,30.53,11111222 
COMPS,ioos:station:USF.COMPS:FHP:1,2019-08-07T18:54:00,28.1530,-82.8010,27.99,11111222 
COMPS,ioos:station:USF.COMPS:FHP:1,2019-08-07T19:54:00,28.1530,-82.8010,30.93,11111222 
COMPS,ioos:station:USF.COMPS:FHP:1,2019-08-07T20:54:00,28.1530,-82.8010,31.05,11111222 
COMPS,ioos:station:USF.COMPS:FHP:1,2019-08-07T21:54:00,28.1530,-82.8010,29.79,11111222 
COMPS,ioos:station:USF.COMPS:FHP:1,2019-08-07T22:54:00,28.1530,-82.8010,30.46,11111222 
COMPS,ioos:station:USF.COMPS:FHP:1,2019-08-07T23:54:00,28.1530,-82.8010,28.94,11111222 
COMPS,ioos:station:USF.COMPS:FHP:1,2019-08-08T00:54:00,28.1530,-82.8010,27.85,11111222 
COMPS,ioos:station:USF.COMPS:FHP:1,2019-08-08T01:54:00,28.1530,-82.8010,29.14,11111222 
COMPS,ioos:station:USF.COMPS:FHP:1,2019-08-08T02:54:00,28.1530,-82.8010,29.28,11111222 
COMPS,ioos:station:USF.COMPS:FHP:1,2019-08-08T05:54:00,28.1530,-82.8010,29.84,11111222 
COMPS,ioos:station:USF.COMPS:FHP:1,2019-08-08T06:54:00,28.1530,-82.8010,29.71,11111222 
COMPS,ioos:station:USF.COMPS:FHP:1,2019-08-08T07:54:00,28.1530,-82.8010,29.64,11111222 
COMPS,ioos:station:USF.COMPS:FHP:1,2019-08-08T08:54:00,28.1530,-82.8010,29.61,11111222 
COMPS,ioos:station:USF.COMPS:FHP:1,2019-08-08T09:54:00,28.1530,-82.8010,29.61,11111222 
COMPS,ioos:station:USF.COMPS:FHP:1,2019-08-08T10:54:00,28.1530,-82.8010,29.39,11111222 
COMPS,ioos:station:USF.COMPS:FHP:1,2019-08-08T11:54:00,28.1530,-82.8010,29.82,11111222 
COMPS,ioos:station:USF.COMPS:FHP:1,2019-08-08T12:54:00,28.1530,-82.8010,29.4,11111222 
COMPS,ioos:station:USF.COMPS:FHP:1,2019-08-08T13:54:00,28.1530,-82.8010,30.19,11111222 
COMPS,ioos:station:USF.COMPS:FHP:1,2019-08-08T14:54:00,28.1530,-82.8010,30.15,11111222 
COMPS,ioos:station:USF.COMPS:FHP:1,2019-08-08T15:54:00,28.1530,-82.8010,30.78,11111222 
COMPS,ioos:station:USF.COMPS:FHP:1,2019-08-08T16:54:00,28.1530,-82.8010,30.51,11111222 
COMPS,ioos:station:USF.COMPS:FHP:1,2019-08-08T17:54:00,28.1530,-82.8010,30.81,11111222 
COMPS,ioos:station:USF.COMPS:FHP:1,2019-08-08T18:54:00,28.1530,-82.8010,31.56,11111222 
COMPS,ioos:station:USF.COMPS:FHP:1,2019-08-08T19:54:00,28.1530,-82.8010,30.9,11111222 
COMPS,ioos:station:USF.COMPS:FHP:1,2019-08-08T20:54:00,28.1530,-82.8010,31.34,11111222 
COMPS,ioos:station:USF.COMPS:FHP:1,2019-08-08T21:54:00,28.1530,-82.8010,31.45,11111222 
COMPS,ioos:station:USF.COMPS:FHP:1,2019-08-08T22:54:00,28.1530,-82.8010,30.79,11111222 
COMPS,ioos:station:USF.COMPS:FHP:1,2019-08-08T23:54:00,28.1530,-82.8010,29.93,11111222 
COMPS,ioos:station:USF.COMPS:FHP:1,2019-08-09T00:54:00,28.1530,-82.8010,29.79,11111222 
COMPS,ioos:station:USF.COMPS:FHP:1,2019-08-09T01:54:00,28.1530,-82.8010,29.87,11111222 
COMPS,ioos:station:USF.COMPS:FHP:1,2019-08-09T02:54:00,28.1530,-82.8010,29.86,11111222 
COMPS,ioos:station:USF.COMPS:FHP:1,2019-08-09T03:54:00,28.1530,-82.8010,30.0,11111222 
COMPS,ioos:station:USF.COMPS:FHP:1,2019-08-09T04:54:00,28.1530,-82.8010,29.95,11111222 
COMPS,ioos:station:USF.COMPS:FHP:1,2019-08-09T05:54:00,28.1530,-82.8010,29.83,11111222 
COMPS,ioos:station:USF.COMPS:FHP:1,2019-08-09T06:54:00,28.1530,-82.8010,29.61,11111222 
COMPS,ioos:station:USF.COMPS:FHP:1,2019-08-09T07:54:00,28.1530,-82.8010,29.48,11111222 
COMPS,ioos:station:USF.COMPS:FHP:1,2019-08-09T08:54:00,28.1530,-82.8010,29.42,11111222 
COMPS,ioos:station:USF.COMPS:FHP:1,2019-08-09T09:54:00,28.1530,-82.8010,29.4,11111222 
COMPS,ioos:station:USF.COMPS:FHP:1,2019-08-09T10:54:00,28.1530,-82.8010,29.48,11111222 
COMPS,ioos:station:USF.COMPS:FHP:1,2019-08-09T11:54:00,28.1530,-82.8010,29.8,11111222 
COMPS,ioos:station:USF.COMPS:FHP:1,2019-08-09T12:54:00,28.1530,-82.8010,29.96,11111222 
COMPS,ioos:station:USF.COMPS:FHP:1,2019-08-09T13:54:00,28.1530,-82.8010,30.21,11111222 
COMPS,ioos:station:USF.COMPS:FHP:1,2019-08-09T14:54:00,28.1530,-82.8010,30.98,11111222 
COMPS,ioos:station:USF.COMPS:FHP:1,2019-08-09T15:54:00,28.1530,-82.8010,30.99,11111222 
COMPS,ioos:station:USF.COMPS:FHP:1,2019-08-09T16:54:00,28.1530,-82.8010,31.25,11111222 
COMPS,ioos:station:USF.COMPS:FHP:1,2019-08-09T17:54:00,28.1530,-82.8010,30.87,11111222 
COMPS,ioos:station:USF.COMPS:FHP:1,2019-08-09T18:54:00,28.1530,-82.8010,31.48,11111222 
COMPS,ioos:station:USF.COMPS:FHP:1,2019-08-09T19:54:00,28.1530,-82.8010,31.37,11111222 
COMPS,ioos:station:USF.COMPS:FHP:1,2019-08-09T20:54:00,28.1530,-82.8010,29.84,11111222 
COMPS,ioos:station:USF.COMPS:FHP:1,2019-08-09T21:54:00,28.1530,-82.8010,30.64,11111222 
COMPS,ioos:station:USF.COMPS:FHP:1,2019-08-09T22:54:00,28.1530,-82.8010,29.89,11111222 
COMPS,ioos:station:USF.COMPS:FHP:1,2019-08-09T23:54:00,28.1530,-82.8010,30.31,11111222 
COMPS,ioos:station:USF.COMPS:FHP:1,2019-08-10T00:54:00,28.1530,-82.8010,30.05,11111222 
COMPS,ioos:station:USF.COMPS:FHP:1,2019-08-10T01:54:00,28.1530,-82.8010,30.17,11111222 
COMPS,ioos:station:USF.COMPS:FHP:1,2019-08-10T02:54:00,28.1530,-82.8010,30.02,11111222 
COMPS,ioos:station:USF.COMPS:FHP:1,2019-08-10T03:54:00,28.1530,-82.8010,29.82,11111222 
COMPS,ioos:station:USF.COMPS:FHP:1,2019-08-10T04:54:00,28.1530,-82.8010,29.63,11111222 
COMPS,ioos:station:USF.COMPS:FHP:1,2019-08-10T05:54:00,28.1530,-82.8010,29.51,11111222 
COMPS,ioos:station:USF.COMPS:FHP:1,2019-08-10T06:54:00,28.1530,-82.8010,29.57,11111222 
COMPS,ioos:station:USF.COMPS:FHP:1,2019-08-10T07:54:00,28.1530,-82.8010,29.65,11111222 
COMPS,ioos:station:USF.COMPS:FHP:1,2019-08-10T08:54:00,28.1530,-82.8010,29.67,11111222 
COMPS,ioos:station:USF.COMPS:FHP:1,2019-08-10T09:54:00,28.1530,-82.8010,29.61,11111222 
COMPS,ioos:station:USF.COMPS:FHP:1,2019-08-10T10:54:00,28.1530,-82.8010,29.75,11111222 
COMPS,ioos:station:USF.COMPS:FHP:1,2019-08-10T11:54:00,28.1530,-82.8010,30.01,11111222 
COMPS,ioos:station:USF.COMPS:FHP:1,2019-08-10T12:54:00,28.1530,-82.8010,30.52,11111222 
COMPS,ioos:station:USF.COMPS:FHP:1,2019-08-10T13:54:00,28.1530,-82.8010,30.42,11111222 
COMPS,ioos:station:USF.COMPS:FHP:1,2019-08-10T14:54:00,28.1530,-82.8010,31.09,11111222 
COMPS,ioos:station:USF.COMPS:FHP:1,2019-08-10T15:54:00,28.1530,-82.8010,31.22,11111222 
COMPS,ioos:station:USF.COMPS:FHP:1,2019-08-10T16:54:00,28.1530,-82.8010,31.47,11111222 
COMPS,ioos:station:USF.COMPS:FHP:1,2019-08-10T17:54:00,28.1530,-82.8010,31.1,11111222 
COMPS,ioos:station:USF.COMPS:FHP:1,2019-08-10T18:54:00,28.1530,-82.8010,31.07,11111222 
COMPS,ioos:station:USF.COMPS:FHP:1,2019-08-10T19:54:00,28.1530,-82.8010,31.44,11111222 
COMPS,ioos:station:USF.COMPS:FHP:1,2019-08-10T20:54:00,28.1530,-82.8010,30.63,11111222 
COMPS,ioos:station:USF.COMPS:FHP:1,2019-08-10T21:54:00,28.1530,-82.8010,31.58,11111222 
COMPS,ioos:station:USF.COMPS:FHP:1,2019-08-10T22:54:00,28.1530,-82.8010,30.53,11111222 
COMPS,ioos:station:USF.COMPS:FHP:1,2019-08-10T23:54:00,28.1530,-82.8010,30.57,11111222 
COMPS,ioos:station:USF.COMPS:FHP:1,2019-08-11T00:54:00,28.1530,-82.8010,30.43,11111222 
COMPS,ioos:station:USF.COMPS:FHP:1,2019-08-11T01:54:00,28.1530,-82.8010,30.39,11111222 
COMPS,ioos:station:USF.COMPS:FHP:1,2019-08-11T02:54:00,28.1530,-82.8010,30.17,11111222 
COMPS,ioos:station:USF.COMPS:FHP:1,2019-08-11T03:54:00,28.1530,-82.8010,30.25,11111222 
COMPS,ioos:station:USF.COMPS:FHP:1,2019-08-11T04:54:00,28.1530,-82.8010,30.22,11111222 
COMPS,ioos:station:USF.COMPS:FHP:1,2019-08-11T05:54:00,28.1530,-82.8010,30.07,11111222 
COMPS,ioos:station:USF.COMPS:FHP:1,2019-08-11T06:54:00,28.1530,-82.8010,29.99,11111222 
COMPS,ioos:station:USF.COMPS:FHP:1,2019-08-11T07:54:00,28.1530,-82.8010,29.98,11111222 
COMPS,ioos:station:USF.COMPS:FHP:1,2019-08-11T08:54:00,28.1530,-82.8010,29.88,11111222 
COMPS,ioos:station:USF.COMPS:FHP:1,2019-08-11T09:54:00,28.1530,-82.8010,29.88,11111222 
COMPS,ioos:station:USF.COMPS:FHP:1,2019-08-11T10:54:00,28.1530,-82.8010,29.91,11111222 
COMPS,ioos:station:USF.COMPS:FHP:1,2019-08-11T11:54:00,28.1530,-82.8010,27.53,11111222 
COMPS,ioos:station:USF.COMPS:FHP:1,2019-08-11T12:54:00,28.1530,-82.8010,29.62,11111222 
COMPS,ioos:station:USF.COMPS:FHP:1,2019-08-11T13:54:00,28.1530,-82.8010,29.95,11111222 
COMPS,ioos:station:USF.COMPS:FHP:1,2019-08-11T14:54:00,28.1530,-82.8010,30.4,11111222 
COMPS,ioos:station:USF.COMPS:FHP:1,2019-08-11T15:54:00,28.1530,-82.8010,30.52,11111222 
COMPS,ioos:station:USF.COMPS:FHP:1,2019-08-11T16:54:00,28.1530,-82.8010,31.24,11111222 
COMPS,ioos:station:USF.COMPS:FHP:1,2019-08-11T17:54:00,28.1530,-82.8010,30.91,11111222 
COMPS,ioos:station:USF.COMPS:FHP:1,2019-08-11T18:54:00,28.1530,-82.8010,31.37,11111222 
COMPS,ioos:station:USF.COMPS:FHP:1,2019-08-11T19:54:00,28.1530,-82.8010,31.69,11111222 
COMPS,ioos:station:USF.COMPS:FHP:1,2019-08-11T20:54:00,28.1530,-82.8010,31.77,11111222 
COMPS,ioos:station:USF.COMPS:FHP:1,2019-08-11T21:54:00,28.1530,-82.8010,30.89,11111222 
COMPS,ioos:station:USF.COMPS:FHP:1,2019-08-11T22:54:00,28.1530,-82.8010,31.15,11111222 
COMPS,ioos:station:USF.COMPS:FHP:1,2019-08-12T05:54:00,28.1530,-82.8010,30.23,11111222 
COMPS,ioos:station:USF.COMPS:FHP:1,2019-08-12T08:54:00,28.1530,-82.8010,29.99,11111222 
COMPS,ioos:station:USF.COMPS:FHP:1,2019-08-12T11:54:00,28.1530,-82.8010,29.91,11111222 
COMPS,ioos:station:USF.COMPS:FHP:1,2019-08-12T12:54:00,28.1530,-82.8010,30.27,11111222 
COMPS,ioos:station:USF.COMPS:FHP:1,2019-08-12T13:54:00,28.1530,-82.8010,30.84,11111222 
COMPS,ioos:station:USF.COMPS:FHP:1,2019-08-12T14:54:00,28.1530,-82.8010,30.86,11111222 
COMPS,ioos:station:USF.COMPS:FHP:1,2019-08-12T15:54:00,28.1530,-82.8010,30.88,11111222 
COMPS,ioos:station:USF.COMPS:FHP:1,2019-08-12T16:54:00,28.1530,-82.8010,30.69,11111222 
COMPS,ioos:station:USF.COMPS:FHP:1,2019-08-12T17:54:00,28.1530,-82.8010,30.7,11111222 
COMPS,ioos:station:USF.COMPS:FHP:1,2019-08-12T18:54:00,28.1530,-82.8010,31.04,11111222 
COMPS,ioos:station:USF.COMPS:FHP:1,2019-08-12T19:54:00,28.1530,-82.8010,30.66,11111222 